Time,TemperatureF,DewpointF,PressureIn,WindDirection,WindDirectionDegrees,WindSpeedMPH,WindSpeedGustMPH,Humidity,HourlyPrecipIn,Conditions,Clouds,dailyrainin,SoftwareType,DateUTC
2016-08-29 00:00:00,52.3,51.8,0.00,East,90,5.3,6.8,98,0.00,,,0.00,,2016-08-28 16:00:00,
2016-08-29 00:05:00,52.5,52.0,0.00,East,90,5.3,7.6,98,0.00,,,0.00,,2016-08-28 16:05:00,
2016-08-29 00:11:00,52.7,51.9,0.00,East,90,4.6,6.1,97,0.00,,,0.00,,2016-08-28 16:11:00,
2016-08-29 00:17:00,52.5,51.4,0.00,East,90,3.0,4.6,96,0.00,,,0.00,,2016-08-28 16:17:00,
2016-08-29 00:22:00,52.5,51.4,0.00,East,90,3.0,5.3,96,0.00,,,0.00,,2016-08-28 16:22:00,
2016-08-29 00:28:00,52.3,51.2,0.00,East,90,2.3,3.8,96,0.00,,,0.00,,2016-08-28 16:28:00,
2016-08-29 00:33:00,52.3,51.2,0.00,East,90,1.5,3.0,96,0.00,,,0.00,,2016-08-28 16:33:00,
2016-08-29 00:39:00,52.3,51.2,0.00,East,90,2.3,3.0,96,0.00,,,0.00,,2016-08-28 16:39:00,
2016-08-29 00:45:00,52.3,51.2,0.00,East,90,0.8,2.3,96,0.00,,,0.00,,2016-08-28 16:45:00,
2016-08-29 00:50:00,52.3,51.2,0.00,East,90,2.3,4.6,96,0.00,,,0.00,,2016-08-28 16:50:00,
2016-08-29 00:56:00,52.5,51.4,0.00,East,90,1.5,3.8,96,0.00,,,0.00,,2016-08-28 16:56:00,
2016-08-29 01:01:00,52.7,51.9,0.00,East,90,1.5,3.0,97,0.00,,,0.00,,2016-08-28 17:01:00,
2016-08-29 01:07:00,52.9,52.1,0.00,East,90,2.3,3.0,97,0.00,,,0.00,,2016-08-28 17:07:00,
2016-08-29 01:13:00,52.9,52.1,0.00,East,90,0.8,2.3,97,0.00,,,0.00,,2016-08-28 17:13:00,
2016-08-29 01:20:00,53.1,51.9,0.00,East,90,2.3,3.8,96,0.00,,,0.00,,2016-08-28 17:20:00,
2016-08-29 01:25:00,53.2,52.1,0.00,East,90,3.0,4.6,96,0.00,,,0.00,,2016-08-28 17:25:00,
2016-08-29 01:31:00,53.4,52.3,0.00,East,90,2.3,4.6,96,0.00,,,0.00,,2016-08-28 17:31:00,
2016-08-29 01:37:00,53.4,52.0,0.00,East,90,3.0,4.6,95,0.00,,,0.00,,2016-08-28 17:37:00,
2016-08-29 01:42:00,53.2,51.8,0.00,East,90,3.8,6.1,95,0.00,,,0.00,,2016-08-28 17:42:00,
2016-08-29 01:48:00,53.4,52.0,0.00,East,90,3.0,4.6,95,0.00,,,0.00,,2016-08-28 17:48:00,
2016-08-29 01:53:00,53.4,51.7,0.00,East,90,2.3,3.8,94,0.00,,,0.00,,2016-08-28 17:53:00,
2016-08-29 01:59:00,53.2,51.6,0.00,East,90,1.5,3.0,94,0.00,,,0.00,,2016-08-28 17:59:00,
2016-08-29 02:05:00,53.2,51.6,0.00,East,90,0.8,1.5,94,0.00,,,0.00,,2016-08-28 18:05:00,
2016-08-29 02:10:00,53.1,51.1,0.00,East,90,2.3,3.0,93,0.00,,,0.00,,2016-08-28 18:10:00,
2016-08-29 02:16:00,53.1,51.1,0.00,East,90,2.3,3.0,93,0.00,,,0.00,,2016-08-28 18:16:00,
2016-08-29 02:21:00,53.1,51.1,0.00,East,90,2.3,3.8,93,0.00,,,0.00,,2016-08-28 18:21:00,
2016-08-29 02:27:00,53.2,51.3,0.00,East,90,3.0,4.6,93,0.00,,,0.00,,2016-08-28 18:27:00,
2016-08-29 02:33:00,53.4,51.2,0.00,East,90,1.5,2.3,92,0.00,,,0.00,,2016-08-28 18:33:00,
2016-08-29 02:38:00,53.4,51.2,0.00,East,90,0.8,1.5,92,0.00,,,0.00,,2016-08-28 18:38:00,
2016-08-29 02:44:00,53.4,51.2,0.00,East,90,1.5,2.3,92,0.00,,,0.00,,2016-08-28 18:44:00,
2016-08-29 02:49:00,53.4,50.9,0.00,East,90,1.5,3.0,91,0.00,,,0.00,,2016-08-28 18:49:00,
2016-08-29 02:56:00,53.8,50.9,0.00,East,90,2.3,3.0,90,0.00,,,0.00,,2016-08-28 18:56:00,
2016-08-29 03:01:00,53.8,50.9,0.00,East,90,1.5,2.3,90,0.00,,,0.00,,2016-08-28 19:01:00,
2016-08-29 03:07:00,54.0,50.8,0.00,East,90,0.8,1.5,89,0.00,,,0.00,,2016-08-28 19:07:00,
2016-08-29 03:13:00,54.0,50.8,0.00,East,90,2.3,3.0,89,0.00,,,0.00,,2016-08-28 19:13:00,
2016-08-29 03:18:00,53.8,50.6,0.00,East,90,0.8,1.5,89,0.00,,,0.00,,2016-08-28 19:18:00,
2016-08-29 03:24:00,53.6,50.4,0.00,East,90,0.8,1.5,89,0.00,,,0.00,,2016-08-28 19:24:00,
2016-08-29 03:29:00,53.6,50.4,0.00,East,90,0.8,2.3,89,0.00,,,0.00,,2016-08-28 19:29:00,
2016-08-29 03:35:00,53.4,50.6,0.00,East,90,0.8,2.3,90,0.00,,,0.00,,2016-08-28 19:35:00,
2016-08-29 03:41:00,53.4,50.9,0.00,East,90,1.5,4.6,91,0.00,,,0.00,,2016-08-28 19:41:00,
2016-08-29 03:46:00,53.4,50.9,0.00,East,90,0.8,2.3,91,0.00,,,0.00,,2016-08-28 19:46:00,
2016-08-29 03:52:00,53.4,50.9,0.00,East,90,2.3,3.8,91,0.00,,,0.00,,2016-08-28 19:52:00,
2016-08-29 03:57:00,53.4,51.2,0.00,East,90,3.0,4.6,92,0.00,,,0.00,,2016-08-28 19:57:00,
2016-08-29 04:03:00,53.6,51.0,0.00,East,90,2.3,4.6,91,0.00,,,0.00,,2016-08-28 20:03:00,
2016-08-29 04:09:00,53.6,50.7,0.00,East,90,0.8,1.5,90,0.00,,,0.00,,2016-08-28 20:09:00,
2016-08-29 04:14:00,53.4,50.9,0.00,East,90,2.3,5.3,91,0.00,,,0.00,,2016-08-28 20:14:00,
2016-08-29 04:20:00,53.4,50.9,0.00,East,90,2.3,3.8,91,0.00,,,0.00,,2016-08-28 20:20:00,
2016-08-29 04:25:00,53.6,50.4,0.00,East,90,2.3,3.8,89,0.00,,,0.00,,2016-08-28 20:25:00,
2016-08-29 04:31:00,53.8,50.6,0.00,East,90,1.5,2.3,89,0.00,,,0.00,,2016-08-28 20:31:00,
2016-08-29 04:37:00,53.8,50.6,0.00,East,90,3.0,3.8,89,0.00,,,0.00,,2016-08-28 20:37:00,
2016-08-29 04:42:00,54.0,50.5,0.00,East,90,1.5,3.8,88,0.00,,,0.00,,2016-08-28 20:42:00,
2016-08-29 04:48:00,54.1,50.7,0.00,East,90,3.8,5.3,88,0.00,,,0.00,,2016-08-28 20:48:00,
2016-08-29 04:53:00,54.0,50.5,0.00,East,90,1.5,2.3,88,0.00,,,0.00,,2016-08-28 20:53:00,
2016-08-29 04:59:00,53.6,50.1,0.00,East,90,3.0,3.8,88,0.00,,,0.00,,2016-08-28 20:59:00,
2016-08-29 05:05:00,53.4,50.6,0.00,East,90,0.8,1.5,90,0.00,,,0.00,,2016-08-28 21:05:00,
2016-08-29 05:10:00,53.4,51.2,0.00,East,90,1.5,2.3,92,0.00,,,0.00,,2016-08-28 21:10:00,
2016-08-29 05:16:00,53.4,51.2,0.00,East,90,1.5,3.0,92,0.00,,,0.00,,2016-08-28 21:16:00,
2016-08-29 05:21:00,53.4,51.4,0.00,East,90,3.8,4.6,93,0.00,,,0.00,,2016-08-28 21:21:00,
2016-08-29 05:27:00,53.4,51.4,0.00,East,90,3.0,5.3,93,0.00,,,0.00,,2016-08-28 21:27:00,
2016-08-29 05:33:00,53.4,51.4,0.00,East,90,2.3,3.0,93,0.00,,,0.00,,2016-08-28 21:33:00,
2016-08-29 05:38:00,53.6,51.0,0.00,East,90,4.6,6.8,91,0.00,,,0.00,,2016-08-28 21:38:00,
2016-08-29 05:44:00,53.8,51.2,0.00,East,90,1.5,2.3,91,0.00,,,0.00,,2016-08-28 21:44:00,
2016-08-29 05:49:00,53.8,50.9,0.00,East,90,3.0,4.6,90,0.00,,,0.00,,2016-08-28 21:49:00,
2016-08-29 05:55:00,54.0,50.8,0.00,East,90,2.3,4.6,89,0.00,,,0.00,,2016-08-28 21:55:00,
2016-08-29 06:01:00,54.0,50.2,0.00,East,90,2.3,3.8,87,0.00,,,0.00,,2016-08-28 22:01:00,
2016-08-29 06:06:00,54.1,50.4,0.00,East,90,2.3,3.0,87,0.00,,,0.00,,2016-08-28 22:06:00,
2016-08-29 06:12:00,54.1,50.0,0.00,East,90,1.5,3.8,86,0.00,,,0.00,,2016-08-28 22:12:00,
2016-08-29 06:17:00,54.1,50.0,0.00,East,90,2.3,3.8,86,0.00,,,0.00,,2016-08-28 22:17:00,
2016-08-29 06:23:00,54.1,49.7,0.00,East,90,3.0,3.8,85,0.00,,,0.00,,2016-08-28 22:23:00,
2016-08-29 06:29:00,54.1,49.7,0.00,East,90,2.3,3.8,85,0.00,,,0.00,,2016-08-28 22:29:00,
2016-08-29 06:34:00,54.3,49.9,0.00,East,90,6.1,9.1,85,0.00,,,0.00,,2016-08-28 22:34:00,
2016-08-29 06:40:00,54.3,49.6,0.00,East,90,3.0,4.6,84,0.00,,,0.00,,2016-08-28 22:40:00,
2016-08-29 06:45:00,54.1,49.4,0.00,East,90,2.3,3.0,84,0.00,,,0.00,,2016-08-28 22:45:00,
2016-08-29 06:51:00,54.3,49.6,0.00,East,90,4.6,6.8,84,0.00,,,0.00,,2016-08-28 22:51:00,
2016-08-29 06:57:00,54.3,49.6,0.00,East,90,2.3,3.8,84,0.00,,,0.00,,2016-08-28 22:57:00,
2016-08-29 07:02:00,54.1,49.4,0.00,East,90,2.3,3.8,84,0.00,,,0.00,,2016-08-28 23:02:00,
2016-08-29 07:08:00,54.1,49.4,0.00,East,90,2.3,3.0,84,0.00,,,0.00,,2016-08-28 23:08:00,
2016-08-29 07:13:00,54.1,49.4,0.00,East,90,1.5,4.6,84,0.00,,,0.00,,2016-08-28 23:13:00,
2016-08-29 07:19:00,54.5,50.1,0.00,East,90,2.3,3.0,85,0.00,,,0.00,,2016-08-28 23:19:00,
2016-08-29 07:25:00,54.7,49.9,0.00,East,90,2.3,3.0,84,0.00,,,0.00,,2016-08-28 23:25:00,
2016-08-29 07:30:00,54.9,50.1,0.00,East,90,3.8,5.3,84,0.00,,,0.00,,2016-08-28 23:30:00,
2016-08-29 07:36:00,55.0,50.0,0.00,East,90,3.0,3.8,83,0.00,,,0.00,,2016-08-28 23:36:00,
2016-08-29 07:41:00,55.4,50.6,0.00,East,90,2.3,3.8,84,0.00,,,0.00,,2016-08-28 23:41:00,
2016-08-29 07:47:00,56.3,50.9,0.00,East,90,4.6,6.1,82,0.00,,,0.00,,2016-08-28 23:47:00,
2016-08-29 07:53:00,56.7,50.6,0.00,East,90,5.3,6.8,80,0.00,,,0.00,,2016-08-28 23:53:00,
2016-08-29 07:58:00,56.7,49.9,0.00,East,90,5.3,6.8,78,0.00,,,0.00,,2016-08-28 23:58:00,